Precipitable_Water
0.30 0.26 0.26 0.28 0.32 0.36 0.40 0.45 0.45 0.49 0.51 0.50 0.53 0.53 0.53 0.58 0.68 0.82 0.88 1.02 1.08 0.93 0.85 0.90 0.93 1.00 1.09 1.20 1.30 1.37 1.36 1.29 1.28 1.25 1.23 1.26 1.27 1.23 1.20 1.19 1.21 1.26 1.36 1.49 1.52 1.51 1.48 1.46 1.43 1.47 1.49 1.45 1.41 1.38 1.37 1.36 1.35 1.35 1.30 1.28 1.25 1.34 1.42 1.41 1.37 1.37 1.37 1.33 1.33 1.34 1.30 1.27 1.36 1.39 1.44 1.47 1.54 1.62 1.66 1.68 1.66 1.62 1.62 1.66 1.72 1.73
0.24 0.22 0.24 0.33 0.35 0.36 0.38 0.41 0.44 0.44 0.45 0.44 0.47 0.47 0.47 0.53 0.57 0.79 0.81 0.98 1.06 0.85 0.80 0.91 0.89 0.92 1.02 1.14 1.24 1.34 1.33 1.23 1.24 1.26 1.25 1.27 1.28 1.30 1.23 1.20 1.23 1.29 1.46 1.54 1.51 1.50 1.49 1.46 1.42 1.44 1.46 1.44 1.33 1.33 1.34 1.32 1.34 1.35 1.35 1.29 1.29 1.35 1.38 1.40 1.40 1.40 1.39 1.38 1.33 1.26 1.21 1.22 1.27 1.30 1.32 1.34 1.43 1.53 1.61 1.63 1.68 1.68 1.68 1.69 1.71 1.71
0.16 0.16 0.25 0.32 0.34 0.35 0.36 0.36 0.36 0.35 0.36 0.42 0.42 0.45 0.46 0.53 0.71 0.88 0.88 0.97 1.00 0.87 0.75 0.86 0.79 0.84 0.96 1.08 1.17 1.22 1.27 1.30 1.33 1.32 1.32 1.31 1.29 1.30 1.29 1.25 1.26 1.33 1.42 1.52 1.52 1.50 1.50 1.47 1.41 1.39 1.42 1.41 1.40 1.36 1.32 1.34 1.36 1.36 1.35 1.33 1.33 1.36 1.36 1.39 1.43 1.44 1.37 1.40 1.40 1.31 1.23 1.20 1.21 1.34 1.38 1.40 1.48 1.56 1.58 1.62 1.66 1.68 1.69 1.70 1.70 1.71
0.13 0.18 0.24 0.32 0.34 0.34 0.32 0.32 0.32 0.32 0.36 0.38 0.42 0.41 0.40 0.55 0.55 0.54 0.78 0.89 0.95 0.85 0.75 0.81 0.75 0.80 0.93 1.03 1.08 1.19 1.25 1.31 1.39 1.41 1.38 1.39 1.35 1.31 1.31 1.31 1.27 1.28 1.38 1.45 1.48 1.46 1.48 1.47 1.41 1.37 1.37 1.40 1.41 1.37 1.34 1.33 1.32 1.35 1.35 1.34 1.33 1.35 1.38 1.39 1.42 1.44 1.44 1.43 1.43 1.39 1.32 1.29 1.30 1.32 1.42 1.44 1.48 1.53 1.58 1.59 1.66 1.66 1.68 1.69 1.70 1.72
0.17 0.22 0.28 0.32 0.33 0.31 0.29 0.29 0.30 0.30 0.31 0.37 0.42 0.44 0.43 0.43 0.54 0.55 0.65 0.79 0.89 0.93 0.92 0.83 0.72 0.72 0.80 0.79 0.86 1.04 1.23 1.27 1.34 1.39 1.40 1.42 1.45 1.47 1.44 1.42 1.40 1.29 1.32 1.41 1.47 1.48 1.49 1.44 1.39 1.34 1.36 1.42 1.37 1.35 1.33 1.33 1.32 1.32 1.32 1.34 1.34 1.35 1.35 1.39 1.42 1.44 1.44 1.43 1.39 1.38 1.36 1.37 1.36 1.42 1.42 1.40 1.36 1.45 1.52 1.59 1.61 1.61 1.64 1.66 1.69 1.72
0.21 0.26 0.29 0.29 0.30 0.30 0.29 0.28 0.30 0.29 0.29 0.36 0.46 0.44 0.40 0.48 0.54 0.61 0.70 0.64 0.60 0.62 0.80 0.74 0.47 0.46 0.66 0.72 0.78 0.91 1.02 1.08 1.27 1.27 1.31 1.36 1.40 1.45 1.41 1.39 1.44 1.43 1.37 1.37 1.42 1.47 1.49 1.48 1.46 1.42 1.37 1.36 1.37 1.35 1.36 1.38 1.37 1.34 1.33 1.35 1.35 1.36 1.35 1.36 1.40 1.44 1.44 1.38 1.33 1.28 1.23 1.21 1.24 1.26 1.31 1.28 1.26 1.32 1.40 1.45 1.59 1.64 1.65 1.63 1.64 1.70
0.23 0.27 0.28 0.27 0.27 0.27 0.28 0.29 0.29 0.29 0.25 0.26 0.34 0.43 0.46 0.52 0.57 0.62 0.65 0.57 0.44 0.39 0.67 0.85 0.46 0.36 0.55 0.60 0.73 0.83 0.87 0.95 1.14 1.20 1.27 1.33 1.38 1.43 1.42 1.43 1.43 1.44 1.41 1.39 1.42 1.48 1.49 1.50 1.49 1.46 1.38 1.33 1.33 1.37 1.41 1.41 1.40 1.39 1.34 1.34 1.35 1.34 1.33 1.34 1.35 1.41 1.41 1.37 1.35 1.32 1.28 1.31 1.34 1.32 1.36 1.41 1.42 1.40 1.48 1.55 1.54 1.56 1.61 1.63 1.61 1.64
0.26 0.27 0.26 0.26 0.26 0.26 0.27 0.26 0.27 0.26 0.24 0.23 0.26 0.37 0.45 0.50 0.51 0.57 0.60 0.57 0.54 0.68 0.79 0.77 0.63 0.40 0.35 0.48 0.68 0.79 0.79 0.85 0.95 1.10 1.22 1.30 1.34 1.40 1.45 1.46 1.45 1.47 1.47 1.40 1.36 1.41 1.48 1.50 1.49 1.44 1.43 1.36 1.33 1.40 1.43 1.40 1.41 1.39 1.34 1.31 1.30 1.32 1.31 1.30 1.30 1.33 1.37 1.33 1.35 1.38 1.39 1.43 1.45 1.41 1.40 1.42 1.42 1.47 1.51 1.51 1.52 1.53 1.56 1.61 1.62 1.60
0.27 0.24 0.23 0.23 0.25 0.26 0.23 0.24 0.24 0.25 0.22 0.21 0.30 0.42 0.44 0.48 0.60 0.65 0.59 0.56 0.59 0.53 0.44 0.59 0.67 0.45 0.36 0.47 0.69 0.75 0.65 0.73 0.84 0.99 1.13 1.24 1.31 1.36 1.43 1.47 1.49 1.50 1.51 1.49 1.40 1.37 1.42 1.46 1.49 1.51 1.47 1.47 1.44 1.42 1.39 1.39 1.39 1.42 1.40 1.33 1.31 1.26 1.27 1.27 1.26 1.26 1.32 1.34 1.37 1.42 1.45 1.44 1.49 1.48 1.47 1.50 1.50 1.48 1.51 1.46 1.49 1.49 1.52 1.55 1.58 1.56
0.28 0.26 0.26 0.25 0.23 0.21 0.22 0.23 0.22 0.21 0.18 0.35 0.46 0.49 0.56 0.61 0.62 0.67 0.61 0.55 0.55 0.39 0.30 0.42 0.58 0.37 0.33 0.46 0.58 0.71 0.63 0.66 0.77 0.91 1.06 1.19 1.27 1.32 1.37 1.45 1.50 1.52 1.53 1.54 1.51 1.46 1.43 1.47 1.52 1.56 1.58 1.55 1.48 1.45 1.44 1.43 1.43 1.42 1.41 1.34 1.29 1.24 1.23 1.26 1.25 1.25 1.26 1.31 1.39 1.42 1.46 1.45 1.46 1.50 1.51 1.52 1.47 1.46 1.49 1.40 1.41 1.43 1.44 1.47 1.48 1.50
0.29 0.31 0.31 0.25 0.20 0.20 0.20 0.21 0.20 0.21 0.27 0.47 0.46 0.41 0.50 0.54 0.58 0.61 0.60 0.55 0.44 0.27 0.32 0.40 0.50 0.43 0.29 0.43 0.54 0.52 0.63 0.73 0.80 0.88 1.00 1.12 1.23 1.32 1.38 1.42 1.45 1.49 1.51 1.52 1.53 1.53 1.48 1.49 1.53 1.60 1.57 1.57 1.56 1.50 1.45 1.42 1.41 1.41 1.39 1.35 1.28 1.25 1.23 1.22 1.23 1.22 1.21 1.27 1.36 1.39 1.46 1.48 1.46 1.48 1.47 1.43 1.40 1.41 1.42 1.38 1.38 1.39 1.40 1.44 1.44 1.48
0.27 0.27 0.26 0.28 0.30 0.26 0.24 0.21 0.23 0.34 0.40 0.36 0.33 0.36 0.39 0.41 0.56 0.52 0.52 0.51 0.30 0.23 0.31 0.45 0.45 0.48 0.26 0.35 0.53 0.67 0.78 0.83 0.82 0.82 0.91 1.00 1.08 1.19 1.30 1.37 1.42 1.46 1.51 1.54 1.54 1.53 1.53 1.49 1.49 1.54 1.55 1.58 1.57 1.52 1.45 1.41 1.41 1.39 1.38 1.36 1.29 1.28 1.24 1.20 1.21 1.20 1.20 1.23 1.32 1.38 1.44 1.49 1.50 1.49 1.46 1.42 1.38 1.40 1.39 1.39 1.35 1.40 1.41 1.41 1.43 1.46
0.25 0.27 0.30 0.30 0.35 0.28 0.24 0.21 0.24 0.31 0.29 0.28 0.31 0.32 0.22 0.31 0.32 0.28 0.36 0.28 0.25 0.19 0.35 0.45 0.48 0.38 0.33 0.38 0.50 0.62 0.73 0.83 0.90 0.92 0.92 0.99 1.05 1.13 1.24 1.32 1.37 1.42 1.47 1.51 1.53 1.53 1.53 1.49 1.44 1.44 1.48 1.54 1.56 1.51 1.46 1.41 1.39 1.39 1.37 1.35 1.28 1.26 1.26 1.21 1.19 1.17 1.18 1.21 1.26 1.34 1.40 1.48 1.54 1.52 1.51 1.48 1.44 1.47 1.45 1.44 1.39 1.39 1.36 1.40 1.38 1.40
0.25 0.30 0.31 0.31 0.31 0.32 0.28 0.22 0.21 0.20 0.21 0.23 0.22 0.24 0.19 0.20 0.18 0.16 0.23 0.26 0.25 0.28 0.36 0.40 0.51 0.31 0.40 0.45 0.59 0.61 0.74 0.87 0.95 0.99 1.02 1.03 1.06 1.13 1.19 1.29 1.36 1.38 1.40 1.46 1.52 1.53 1.53 1.53 1.50 1.46 1.45 1.47 1.52 1.55 1.50 1.45 1.41 1.40 1.36 1.33 1.28 1.26 1.28 1.24 1.18 1.16 1.14 1.16 1.23 1.32 1.37 1.45 1.53 1.52 1.51 1.51 1.49 1.52 1.53 1.51 1.45 1.43 1.41 1.41 1.43 1.46
0.22 0.22 0.27 0.30 0.27 0.33 0.29 0.27 0.25 0.22 0.22 0.21 0.25 0.21 0.19 0.18 0.16 0.14 0.18 0.16 0.17 0.21 0.37 0.52 0.35 0.31 0.30 0.45 0.74 0.80 0.87 0.91 0.97 1.01 1.05 1.09 1.14 1.19 1.26 1.29 1.36 1.38 1.37 1.40 1.47 1.52 1.53 1.55 1.55 1.51 1.49 1.46 1.48 1.55 1.56 1.49 1.44 1.42 1.36 1.31 1.26 1.25 1.29 1.25 1.17 1.15 1.11 1.12 1.17 1.26 1.35 1.42 1.49 1.50 1.50 1.51 1.54 1.55 1.54 1.54 1.51 1.50 1.50 1.47 1.50 1.52
0.25 0.25 0.30 0.33 0.33 0.34 0.30 0.32 0.34 0.28 0.25 0.28 0.26 0.26 0.22 0.20 0.23 0.17 0.21 0.22 0.22 0.26 0.30 0.38 0.34 0.44 0.39 0.67 0.76 0.83 0.89 0.90 0.94 0.95 1.00 1.02 1.10 1.16 1.21 1.25 1.28 1.34 1.37 1.38 1.38 1.46 1.54 1.58 1.59 1.57 1.54 1.51 1.49 1.52 1.57 1.54 1.49 1.44 1.39 1.34 1.28 1.24 1.27 1.27 1.21 1.14 1.11 1.10 1.14 1.20 1.28 1.37 1.44 1.48 1.48 1.49 1.53 1.55 1.57 1.56 1.54 1.52 1.53 1.53 1.54 1.56
0.27 0.24 0.31 0.31 0.34 0.32 0.33 0.36 0.37 0.35 0.23 0.34 0.32 0.26 0.30 0.38 0.33 0.29 0.31 0.36 0.37 0.31 0.26 0.47 0.41 0.46 0.59 0.60 0.69 0.76 0.78 0.82 0.88 0.90 0.92 0.94 1.03 1.12 1.17 1.25 1.30 1.34 1.38 1.41 1.40 1.41 1.49 1.58 1.61 1.60 1.58 1.55 1.52 1.51 1.52 1.56 1.55 1.49 1.45 1.39 1.31 1.27 1.28 1.28 1.25 1.18 1.14 1.10 1.10 1.14 1.24 1.34 1.37 1.40 1.39 1.40 1.44 1.50 1.56 1.56 1.54 1.51 1.52 1.53 1.53 1.52
0.24 0.25 0.31 0.30 0.29 0.35 0.39 0.41 0.41 0.38 0.36 0.35 0.28 0.35 0.45 0.49 0.43 0.32 0.25 0.31 0.29 0.23 0.25 0.35 0.32 0.36 0.37 0.30 0.63 0.68 0.68 0.74 0.80 0.84 0.89 0.93 0.95 1.00 1.12 1.23 1.30 1.35 1.39 1.45 1.48 1.49 1.51 1.56 1.61 1.62 1.62 1.61 1.54 1.50 1.51 1.56 1.61 1.57 1.52 1.47 1.39 1.30 1.23 1.25 1.27 1.22 1.16 1.08 1.05 1.10 1.18 1.27 1.33 1.36 1.39 1.41 1.43 1.50 1.52 1.53 1.53 1.53 1.50 1.49 1.53 1.54
0.28 0.23 0.28 0.31 0.32 0.34 0.39 0.40 0.37 0.43 0.45 0.35 0.35 0.51 0.33 0.30 0.27 0.36 0.28 0.20 0.20 0.19 0.22 0.28 0.33 0.34 0.37 0.36 0.52 0.55 0.59 0.67 0.75 0.81 0.85 0.87 0.92 0.96 1.06 1.17 1.29 1.38 1.42 1.44 1.47 1.50 1.53 1.56 1.61 1.66 1.66 1.68 1.63 1.57 1.55 1.59 1.64 1.63 1.58 1.54 1.49 1.38 1.30 1.25 1.27 1.27 1.24 1.17 1.08 1.09 1.13 1.20 1.27 1.34 1.39 1.43 1.46 1.49 1.48 1.47 1.49 1.48 1.49 1.52 1.54 1.53
0.29 0.22 0.26 0.32 0.33 0.35 0.37 0.36 0.29 0.34 0.43 0.45 0.46 0.41 0.47 0.37 0.33 0.28 0.30 0.33 0.28 0.23 0.23 0.22 0.29 0.25 0.39 0.42 0.51 0.57 0.65 0.70 0.74 0.78 0.80 0.85 0.90 0.96 1.02 1.11 1.20 1.28 1.38 1.42 1.45 1.47 1.50 1.58 1.65 1.70 1.73 1.75 1.73 1.69 1.66 1.63 1.66 1.65 1.63 1.58 1.55 1.52 1.44 1.36 1.29 1.28 1.24 1.22 1.16 1.09 1.11 1.17 1.24 1.30 1.35 1.40 1.42 1.43 1.44 1.45 1.46 1.47 1.47 1.48 1.53 1.52
0.26 0.29 0.22 0.30 0.36 0.35 0.31 0.33 0.32 0.35 0.34 0.37 0.37 0.36 0.38 0.39 0.47 0.40 0.41 0.32 0.29 0.26 0.26 0.24 0.22 0.29 0.41 0.56 0.60 0.63 0.68 0.75 0.78 0.76 0.80 0.85 0.90 0.96 1.03 1.10 1.18 1.27 1.32 1.37 1.45 1.51 1.56 1.59 1.62 1.63 1.67 1.73 1.74 1.73 1.69 1.65 1.65 1.67 1.68 1.62 1.58 1.52 1.46 1.36 1.32 1.29 1.26 1.27 1.22 1.16 1.09 1.08 1.14 1.20 1.29 1.34 1.40 1.41 1.44 1.45 1.46 1.47 1.48 1.50 1.47 1.51
0.25 0.25 0.23 0.28 0.30 0.30 0.32 0.38 0.38 0.40 0.39 0.37 0.37 0.35 0.37 0.33 0.31 0.25 0.25 0.44 0.40 0.31 0.28 0.26 0.24 0.33 0.46 0.62 0.66 0.70 0.77 0.79 0.83 0.80 0.79 0.86 0.92 0.97 1.04 1.13 1.17 1.22 1.31 1.37 1.45 1.53 1.58 1.61 1.64 1.68 1.73 1.77 1.73 1.66 1.65 1.65 1.63 1.66 1.67 1.65 1.62 1.57 1.51 1.43 1.37 1.32 1.28 1.28 1.27 1.21 1.14 1.10 1.12 1.15 1.21 1.25 1.31 1.36 1.40 1.44 1.46 1.50 1.51 1.45 1.47 1.51
0.28 0.28 0.25 0.25 0.29 0.31 0.35 0.40 0.45 0.45 0.45 0.44 0.42 0.38 0.42 0.39 0.36 0.29 0.21 0.29 0.38 0.38 0.41 0.37 0.30 0.30 0.51 0.64 0.73 0.76 0.80 0.81 0.84 0.85 0.83 0.90 0.96 1.00 1.08 1.14 1.18 1.22 1.27 1.36 1.44 1.51 1.56 1.61 1.65 1.69 1.72 1.77 1.76 1.70 1.70 1.67 1.59 1.58 1.64 1.69 1.66 1.60 1.54 1.51 1.46 1.43 1.38 1.31 1.28 1.25 1.22 1.18 1.15 1.14 1.14 1.15 1.19 1.23 1.31 1.37 1.42 1.48 1.45 1.43 1.45 1.50
0.35 0.26 0.24 0.26 0.31 0.37 0.40 0.43 0.45 0.46 0.46 0.41 0.43 0.45 0.41 0.36 0.37 0.33 0.30 0.33 0.29 0.34 0.30 0.32 0.26 0.29 0.46 0.66 0.72 0.77 0.82 0.85 0.89 0.89 0.86 0.88 0.94 1.00 1.05 1.11 1.13 1.15 1.20 1.28 1.39 1.49 1.58 1.62 1.66 1.66 1.68 1.71 1.73 1.71 1.70 1.69 1.63 1.59 1.61 1.67 1.71 1.64 1.61 1.57 1.54 1.52 1.49 1.42 1.35 1.33 1.30 1.24 1.21 1.17 1.14 1.10 1.11 1.11 1.18 1.27 1.31 1.36 1.36 1.39 1.43 1.42
0.25 0.28 0.26 0.24 0.26 0.30 0.33 0.36 0.37 0.43 0.42 0.39 0.39 0.43 0.45 0.44 0.42 0.42 0.40 0.43 0.29 0.32 0.31 0.26 0.20 0.26 0.43 0.60 0.70 0.71 0.73 0.74 0.79 0.89 0.92 0.85 0.93 0.96 1.02 1.08 1.12 1.16 1.20 1.25 1.29 1.36 1.48 1.58 1.61 1.63 1.66 1.67 1.70 1.73 1.72 1.70 1.66 1.59 1.57 1.62 1.65 1.66 1.68 1.65 1.61 1.56 1.53 1.51 1.44 1.39 1.35 1.32 1.28 1.21 1.17 1.12 1.11 1.09 1.12 1.17 1.22 1.26 1.27 1.30 1.32 1.36
0.29 0.31 0.28 0.23 0.21 0.20 0.21 0.22 0.24 0.28 0.34 0.35 0.38 0.43 0.45 0.42 0.41 0.38 0.31 0.34 0.25 0.32 0.33 0.28 0.25 0.33 0.41 0.50 0.55 0.61 0.65 0.66 0.73 0.80 0.89 0.93 0.92 0.95 0.98 1.04 1.10 1.13 1.14 1.18 1.25 1.32 1.36 1.48 1.60 1.64 1.68 1.71 1.69 1.70 1.73 1.71 1.65 1.62 1.59 1.57 1.62 1.64 1.66 1.69 1.67 1.60 1.56 1.55 1.50 1.44 1.37 1.34 1.32 1.27 1.22 1.19 1.17 1.14 1.13 1.15 1.18 1.22 1.26 1.29 1.28 1.32
0.32 0.34 0.31 0.28 0.26 0.25 0.26 0.30 0.37 0.38 0.37 0.32 0.33 0.36 0.39 0.43 0.44 0.42 0.40 0.33 0.26 0.32 0.29 0.31 0.30 0.30 0.33 0.42 0.47 0.54 0.58 0.59 0.62 0.70 0.77 0.85 0.94 0.95 0.96 1.01 1.06 1.09 1.12 1.13 1.16 1.26 1.36 1.42 1.50 1.60 1.67 1.71 1.73 1.75 1.72 1.69 1.70 1.68 1.64 1.58 1.59 1.63 1.66 1.66 1.66 1.63 1.58 1.56 1.53 1.50 1.44 1.39 1.34 1.31 1.27 1.25 1.23 1.23 1.21 1.19 1.19 1.21 1.22 1.29 1.30 1.31
0.32 0.30 0.31 0.31 0.31 0.31 0.35 0.33 0.35 0.35 0.32 0.33 0.31 0.30 0.35 0.38 0.40 0.38 0.34 0.31 0.38 0.33 0.26 0.34 0.37 0.31 0.32 0.39 0.45 0.50 0.56 0.60 0.65 0.69 0.75 0.81 0.89 0.91 0.92 0.96 1.01 1.06 1.12 1.15 1.15 1.18 1.24 1.35 1.46 1.54 1.62 1.68 1.72 1.74 1.75 1.78 1.78 1.71 1.66 1.61 1.60 1.61 1.64 1.67 1.66 1.63 1.60 1.58 1.54 1.52 1.50 1.48 1.45 1.41 1.36 1.31 1.29 1.28 1.27 1.26 1.25 1.24 1.26 1.30 1.31 1.34
0.31 0.28 0.31 0.31 0.30 0.32 0.36 0.35 0.35 0.33 0.32 0.31 0.30 0.30 0.29 0.34 0.36 0.34 0.34 0.38 0.40 0.32 0.27 0.32 0.36 0.32 0.36 0.40 0.46 0.51 0.57 0.60 0.65 0.71 0.76 0.84 0.88 0.92 0.92 0.91 0.94 1.00 1.07 1.10 1.14 1.19 1.23 1.28 1.39 1.48 1.57 1.66 1.71 1.72 1.73 1.73 1.77 1.80 1.75 1.69 1.66 1.65 1.62 1.66 1.66 1.64 1.61 1.58 1.55 1.53 1.54 1.54 1.53 1.52 1.48 1.43 1.35 1.31 1.30 1.31 1.31 1.30 1.29 1.30 1.32 1.38
0.31 0.29 0.31 0.31 0.29 0.31 0.32 0.33 0.33 0.31 0.31 0.30 0.29 0.29 0.30 0.31 0.33 0.34 0.36 0.40 0.41 0.39 0.39 0.37 0.37 0.35 0.40 0.45 0.51 0.60 0.67 0.68 0.75 0.83 0.86 0.84 0.83 0.86 0.88 0.89 0.91 0.97 1.03 1.09 1.14 1.19 1.25 1.29 1.34 1.41 1.48 1.55 1.62 1.68 1.71 1.72 1.73 1.77 1.75 1.71 1.71 1.70 1.69 1.67 1.63 1.62 1.62 1.59 1.56 1.57 1.57 1.57 1.57 1.56 1.55 1.52 1.44 1.35 1.33 1.33 1.34 1.34 1.32 1.31 1.33 1.37
0.31 0.29 0.32 0.30 0.27 0.27 0.30 0.32 0.32 0.31 0.30 0.29 0.31 0.32 0.33 0.33 0.35 0.38 0.40 0.42 0.44 0.43 0.45 0.43 0.39 0.35 0.47 0.53 0.60 0.72 0.75 0.78 0.78 0.76 0.77 0.79 0.80 0.80 0.81 0.85 0.91 0.96 1.03 1.10 1.15 1.18 1.23 1.28 1.32 1.38 1.41 1.46 1.53 1.60 1.67 1.71 1.74 1.79 1.79 1.77 1.77 1.76 1.77 1.74 1.64 1.61 1.61 1.59 1.61 1.61 1.61 1.59 1.57 1.58 1.56 1.56 1.54 1.48 1.39 1.36 1.38 1.40 1.38 1.37 1.39 1.42
0.33 0.33 0.35 0.30 0.26 0.26 0.30 0.31 0.31 0.32 0.31 0.30 0.30 0.32 0.33 0.33 0.30 0.33 0.33 0.39 0.38 0.38 0.43 0.43 0.37 0.35 0.46 0.58 0.69 0.74 0.73 0.72 0.71 0.73 0.75 0.78 0.81 0.80 0.78 0.82 0.90 0.97 1.01 1.07 1.13 1.17 1.19 1.22 1.25 1.29 1.34 1.43 1.52 1.59 1.64 1.68 1.72 1.76 1.76 1.81 1.80 1.82 1.85 1.79 1.70 1.63 1.61 1.62 1.63 1.63 1.61 1.59 1.59 1.58 1.57 1.58 1.56 1.55 1.51 1.44 1.43 1.43 1.42 1.44 1.47 1.51
0.33 0.34 0.30 0.29 0.26 0.27 0.31 0.33 0.31 0.32 0.30 0.27 0.29 0.32 0.35 0.37 0.38 0.39 0.41 0.43 0.42 0.45 0.41 0.37 0.37 0.46 0.53 0.64 0.60 0.67 0.70 0.72 0.72 0.73 0.74 0.78 0.80 0.80 0.79 0.80 0.87 0.95 1.00 1.04 1.09 1.17 1.20 1.20 1.24 1.27 1.27 1.31 1.39 1.50 1.64 1.72 1.71 1.70 1.76 1.78 1.83 1.88 1.86 1.81 1.75 1.68 1.64 1.64 1.63 1.63 1.63 1.61 1.59 1.58 1.58 1.58 1.58 1.60 1.59 1.52 1.46 1.45 1.44 1.46 1.54 1.59
0.36 0.35 0.32 0.33 0.27 0.29 0.33 0.34 0.34 0.30 0.24 0.25 0.38 0.40 0.41 0.39 0.42 0.38 0.37 0.40 0.48 0.48 0.45 0.49 0.50 0.58 0.61 0.60 0.58 0.61 0.64 0.67 0.72 0.79 0.83 0.79 0.78 0.79 0.82 0.85 0.88 0.94 1.00 1.04 1.07 1.12 1.19 1.24 1.28 1.30 1.32 1.31 1.34 1.42 1.55 1.68 1.72 1.75 1.79 1.81 1.84 1.84 1.83 1.82 1.79 1.75 1.71 1.70 1.66 1.64 1.64 1.62 1.59 1.58 1.59 1.60 1.61 1.62 1.59 1.52 1.46 1.48 1.51 1.56 1.62 1.59
0.35 0.35 0.34 0.35 0.30 0.29 0.33 0.33 0.29 0.24 0.25 0.35 0.42 0.48 0.48 0.47 0.49 0.47 0.51 0.52 0.53 0.55 0.55 0.55 0.56 0.56 0.58 0.60 0.62 0.66 0.71 0.77 0.83 0.81 0.80 0.83 0.82 0.79 0.78 0.83 0.88 0.93 0.98 1.01 1.03 1.09 1.16 1.22 1.26 1.30 1.31 1.32 1.34 1.37 1.44 1.52 1.63 1.72 1.79 1.82 1.81 1.84 1.84 1.85 1.82 1.79 1.76 1.73 1.71 1.68 1.66 1.64 1.62 1.61 1.61 1.63 1.62 1.61 1.56 1.49 1.50 1.53 1.58 1.63 1.63 1.61
0.35 0.34 0.35 0.32 0.33 0.34 0.31 0.30 0.23 0.24 0.34 0.39 0.45 0.52 0.57 0.55 0.55 0.53 0.49 0.55 0.60 0.59 0.59 0.54 0.55 0.60 0.61 0.63 0.69 0.75 0.76 0.79 0.81 0.80 0.80 0.82 0.84 0.82 0.81 0.83 0.89 0.93 0.95 1.02 1.05 1.09 1.14 1.20 1.24 1.27 1.30 1.37 1.37 1.36 1.39 1.43 1.54 1.58 1.64 1.80 1.84 1.86 1.88 1.89 1.87 1.83 1.82 1.75 1.72 1.71 1.70 1.69 1.66 1.67 1.68 1.70 1.72 1.66 1.56 1.50 1.52 1.54 1.61 1.63 1.63 1.63
0.37 0.37 0.35 0.31 0.36 0.28 0.30 0.29 0.28 0.35 0.34 0.39 0.40 0.43 0.46 0.41 0.46 0.43 0.37 0.45 0.59 0.62 0.61 0.56 0.57 0.61 0.63 0.68 0.73 0.77 0.79 0.75 0.62 0.62 0.77 0.80 0.84 0.89 0.89 0.90 0.95 0.97 1.01 1.07 1.12 1.14 1.20 1.24 1.27 1.32 1.36 1.38 1.40 1.38 1.37 1.41 1.45 1.47 1.51 1.58 1.71 1.84 1.90 1.91 1.87 1.88 1.87 1.80 1.78 1.78 1.80 1.77 1.71 1.67 1.61 1.60 1.69 1.74 1.68 1.58 1.55 1.58 1.62 1.57 1.56 1.56
0.40 0.34 0.37 0.32 0.33 0.34 0.30 0.29 0.29 0.28 0.25 0.31 0.39 0.50 0.57 0.56 0.55 0.53 0.43 0.41 0.57 0.63 0.66 0.62 0.58 0.60 0.65 0.69 0.72 0.74 0.71 0.54 0.43 0.48 0.70 0.82 0.88 0.90 0.95 0.98 1.01 1.04 1.06 1.09 1.15 1.20 1.23 1.26 1.30 1.35 1.36 1.36 1.38 1.40 1.40 1.39 1.39 1.38 1.37 1.41 1.51 1.62 1.77 1.86 1.87 1.92 1.92 1.89 1.86 1.86 1.87 1.83 1.80 1.78 1.73 1.68 1.66 1.74 1.79 1.71 1.67 1.63 1.61 1.52 1.49 1.48
0.42 0.41 0.39 0.34 0.32 0.33 0.31 0.28 0.28 0.26 0.29 0.35 0.39 0.49 0.57 0.60 0.56 0.58 0.42 0.36 0.53 0.62 0.68 0.65 0.62 0.66 0.67 0.65 0.66 0.67 0.56 0.42 0.41 0.49 0.70 0.81 0.86 0.91 0.90 0.95 1.00 1.04 1.07 1.08 1.10 1.14 1.20 1.25 1.28 1.31 1.35 1.35 1.32 1.37 1.40 1.38 1.36 1.32 1.28 1.32 1.37 1.43 1.50 1.64 1.79 1.88 1.91 1.92 1.97 2.00 1.97 1.92 1.88 1.87 1.86 1.85 1.85 1.83 1.84 1.83 1.73 1.65 1.57 1.53 1.53 1.50
0.38 0.38 0.37 0.33 0.32 0.32 0.31 0.29 0.28 0.31 0.31 0.38 0.46 0.52 0.59 0.64 0.58 0.48 0.32 0.34 0.51 0.62 0.68 0.67 0.64 0.65 0.65 0.66 0.66 0.60 0.52 0.41 0.43 0.53 0.75 0.82 0.87 0.91 0.90 0.92 0.96 1.01 1.05 1.08 1.12 1.20 1.25 1.27 1.24 1.24 1.27 1.28 1.31 1.38 1.39 1.39 1.36 1.32 1.30 1.31 1.35 1.34 1.37 1.44 1.58 1.78 1.92 1.96 1.99 1.99 1.98 1.96 1.94 1.94 1.94 1.93 1.94 1.94 1.94 1.97 1.89 1.84 1.80 1.71 1.65 1.57
0.35 0.36 0.36 0.31 0.32 0.33 0.32 0.31 0.33 0.33 0.39 0.47 0.51 0.56 0.61 0.62 0.52 0.37 0.30 0.39 0.55 0.62 0.67 0.67 0.64 0.64 0.66 0.62 0.65 0.53 0.61 0.62 0.65 0.73 0.81 0.85 0.84 0.86 0.93 0.98 0.99 1.02 1.02 1.06 1.10 1.19 1.21 1.23 1.22 1.20 1.23 1.28 1.32 1.35 1.37 1.36 1.32 1.30 1.33 1.37 1.39 1.38 1.44 1.50 1.57 1.64 1.73 1.88 1.97 2.00 2.02 2.05 2.03 1.99 1.99 1.99 1.94 1.96 1.99 2.02 1.96 1.89 1.81 1.80 1.77 1.73
0.37 0.36 0.37 0.36 0.33 0.32 0.33 0.31 0.31 0.35 0.42 0.52 0.59 0.61 0.63 0.50 0.37 0.34 0.46 0.57 0.59 0.61 0.69 0.69 0.66 0.67 0.68 0.65 0.66 0.65 0.69 0.75 0.80 0.83 0.81 0.81 0.80 0.82 0.87 0.93 0.97 1.01 1.08 1.12 1.14 1.15 1.17 1.19 1.20 1.20 1.21 1.26 1.32 1.35 1.36 1.35 1.29 1.29 1.32 1.38 1.43 1.51 1.61 1.65 1.63 1.62 1.66 1.72 1.83 1.95 2.01 2.03 2.06 2.05 2.02 2.02 2.04 2.00 1.93 1.93 1.98 1.98 1.90 1.89 1.89 1.86
0.37 0.34 0.33 0.33 0.37 0.38 0.35 0.32 0.31 0.28 0.41 0.54 0.58 0.57 0.60 0.42 0.45 0.53 0.59 0.62 0.69 0.68 0.69 0.73 0.72 0.72 0.72 0.69 0.74 0.74 0.77 0.78 0.79 0.78 0.80 0.82 0.81 0.80 0.83 0.88 0.91 0.93 0.97 1.04 1.09 1.15 1.17 1.16 1.17 1.18 1.19 1.24 1.28 1.32 1.33 1.32 1.27 1.28 1.34 1.37 1.48 1.56 1.58 1.60 1.67 1.69 1.65 1.67 1.72 1.83 1.94 2.03 2.06 2.06 2.08 2.06 2.06 2.05 1.98 1.94 1.94 1.97 1.96 1.89 1.86 1.87
0.50 0.36 0.37 0.38 0.41 0.34 0.33 0.31 0.31 0.38 0.46 0.58 0.52 0.43 0.53 0.53 0.62 0.64 0.63 0.62 0.72 0.73 0.71 0.73 0.76 0.77 0.77 0.74 0.75 0.77 0.79 0.79 0.80 0.82 0.81 0.81 0.81 0.82 0.84 0.86 0.88 0.92 0.97 1.05 1.11 1.15 1.18 1.17 1.18 1.19 1.21 1.25 1.28 1.31 1.33 1.31 1.26 1.30 1.34 1.40 1.59 1.60 1.59 1.60 1.68 1.73 1.70 1.67 1.70 1.76 1.85 1.95 2.04 2.13 2.15 2.09 2.05 2.02 1.99 1.99 1.98 1.96 1.92 1.88 1.87 1.80
0.56 0.45 0.47 0.39 0.47 0.40 0.37 0.39 0.46 0.51 0.54 0.60 0.59 0.59 0.61 0.65 0.69 0.71 0.69 0.67 0.67 0.71 0.81 0.75 0.75 0.79 0.82 0.80 0.79 0.78 0.75 0.79 0.78 0.82 0.78 0.78 0.79 0.80 0.80 0.80 0.81 0.85 0.91 0.98 1.07 1.15 1.17 1.16 1.15 1.17 1.20 1.26 1.29 1.31 1.32 1.33 1.29 1.31 1.34 1.47 1.61 1.64 1.61 1.60 1.64 1.71 1.71 1.71 1.71 1.75 1.83 1.89 1.94 2.00 2.03 2.04 2.04 2.03 2.01 1.98 1.96 1.87 1.87 1.90 1.85 1.80
0.66 0.65 0.64 0.53 0.49 0.56 0.58 0.57 0.61 0.59 0.59 0.62 0.66 0.71 0.67 0.70 0.75 0.75 0.71 0.66 0.70 0.73 0.78 0.75 0.78 0.81 0.83 0.86 0.79 0.79 0.77 0.78 0.77 0.78 0.79 0.80 0.79 0.81 0.82 0.80 0.80 0.83 0.86 0.94 1.05 1.13 1.16 1.17 1.17 1.17 1.19 1.25 1.28 1.29 1.32 1.34 1.37 1.35 1.44 1.58 1.65 1.69 1.71 1.70 1.69 1.67 1.70 1.73 1.73 1.78 1.86 1.85 1.87 2.00 2.08 2.02 2.06 2.04 2.05 2.02 1.95 1.90 1.86 1.83 1.81 1.78
0.67 0.70 0.63 0.52 0.58 0.50 0.44 0.58 0.58 0.58 0.64 0.66 0.67 0.73 0.77 0.76 0.76 0.75 0.73 0.72 0.73 0.78 0.80 0.85 0.84 0.85 0.86 0.87 0.81 0.76 0.75 0.77 0.75 0.76 0.77 0.77 0.76 0.77 0.77 0.76 0.77 0.78 0.80 0.84 0.97 1.09 1.13 1.15 1.14 1.14 1.17 1.19 1.25 1.28 1.32 1.36 1.42 1.47 1.53 1.58 1.68 1.75 1.76 1.71 1.74 1.75 1.79 1.80 1.81 1.82 1.84 1.83 1.78 1.82 1.88 1.93 1.93 1.96 1.97 1.93 1.94 1.92 1.87 1.79 1.73 1.70
0.58 0.73 0.62 0.60 0.58 0.52 0.50 0.61 0.67 0.71 0.73 0.75 0.73 0.70 0.70 0.74 0.77 0.78 0.80 0.80 0.81 0.86 0.86 0.88 0.90 0.88 0.91 0.83 0.83 0.76 0.73 0.75 0.71 0.71 0.72 0.74 0.75 0.75 0.74 0.73 0.74 0.77 0.82 0.85 0.91 1.03 1.11 1.15 1.14 1.15 1.17 1.18 1.23 1.30 1.33 1.37 1.42 1.49 1.56 1.63 1.69 1.75 1.78 1.76 1.71 1.71 1.75 1.84 1.86 1.88 1.87 1.85 1.86 1.87 1.87 1.94 2.03 1.99 1.91 1.89 1.87 1.81 1.74 1.70 1.65 1.58
0.68 0.70 0.58 0.63 0.58 0.65 0.69 0.72 0.73 0.74 0.74 0.75 0.77 0.77 0.78 0.78 0.78 0.79 0.81 0.82 0.84 0.84 0.87 0.91 0.93 0.90 0.86 0.82 0.82 0.78 0.71 0.72 0.74 0.76 0.76 0.77 0.77 0.77 0.75 0.75 0.75 0.77 0.80 0.81 0.85 0.93 1.04 1.14 1.17 1.18 1.19 1.21 1.27 1.31 1.34 1.39 1.45 1.52 1.58 1.61 1.65 1.67 1.68 1.71 1.76 1.71 1.73 1.79 1.77 1.86 1.87 1.87 1.89 1.90 1.89 1.86 1.85 1.84 1.82 1.75 1.72 1.70 1.67 1.67 1.63 1.56
0.67 0.60 0.67 0.66 0.58 0.57 0.56 0.62 0.70 0.58 0.58 0.66 0.71 0.75 0.78 0.82 0.81 0.81 0.83 0.83 0.85 0.85 0.87 0.86 0.89 0.92 0.88 0.85 0.80 0.77 0.73 0.75 0.80 0.82 0.81 0.82 0.80 0.80 0.78 0.77 0.78 0.78 0.79 0.83 0.86 0.89 0.99 1.13 1.19 1.20 1.22 1.24 1.29 1.33 1.36 1.39 1.41 1.45 1.49 1.53 1.56 1.59 1.60 1.64 1.68 1.75 1.76 1.73 1.79 1.84 1.86 1.86 1.84 1.88 1.81 1.71 1.68 1.65 1.63 1.66 1.64 1.62 1.56 1.49 1.49 1.47
0.64 0.65 0.65 0.61 0.59 0.57 0.65 0.73 0.75 0.70 0.67 0.69 0.72 0.80 0.84 0.85 0.83 0.80 0.81 0.83 0.86 0.89 0.90 0.85 0.80 0.80 0.80 0.82 0.86 0.82 0.80 0.80 0.84 0.89 0.87 0.86 0.84 0.84 0.80 0.79 0.80 0.79 0.80 0.82 0.84 0.88 0.94 1.06 1.17 1.21 1.23 1.26 1.32 1.33 1.34 1.36 1.39 1.43 1.48 1.52 1.56 1.58 1.57 1.58 1.59 1.60 1.64 1.68 1.72 1.74 1.73 1.72 1.71 1.72 1.64 1.62 1.59 1.57 1.54 1.52 1.50 1.48 1.45 1.42 1.38 1.34
Wind_Speed
10 10 10 10 10 9 9 8 7 7 5 5 5 5 5 5 5 5 4 4 5 5 5 6 5 6 6 6 7 6 6 9 10 9 9 9 9 9 9 9 9 8 8 7 7 8 8 7 7 7 8 8 8 7 8 9 9 9 10 11 11 12 12 13 13 13 13 13 12 11 10 10 9 9 8 8 8 8 8 8 9 9 9 9 9 9
9 11 11 11 10 10 9 9 7 6 5 5 5 5 5 5 6 6 5 5 5 5 5 5 5 7 7 7 7 7 7 8 10 10 10 10 10 10 10 9 9 9 8 7 8 8 8 8 8 8 8 8 8 8 9 9 9 10 10 11 11 11 12 12 13 13 13 12 12 11 11 10 9 9 8 8 8 8 9 9 9 9 9 9 9 9
8 10 12 12 11 10 8 8 8 7 7 6 6 5 6 6 6 6 6 5 5 5 6 5 6 8 8 7 7 8 8 8 9 10 11 11 11 11 11 10 9 9 9 9 8 8 9 9 9 9 9 9 9 9 9 9 10 10 10 11 11 12 12 12 13 13 13 12 12 11 11 10 9 8 8 8 8 9 9 9 9 9 9 9 9 9
8 9 10 10 10 9 8 8 7 6 7 7 6 6 6 7 7 6 6 5 5 6 6 6 6 7 7 7 8 9 10 9 9 10 11 12 12 12 12 12 11 11 11 10 9 9 9 10 9 9 9 9 9 9 9 10 10 10 11 11 11 12 12 12 13 13 12 12 11 11 10 9 8 8 8 8 8 8 9 9 9 9 9 9 9 9
8 8 7 8 8 8 7 6 6 6 6 6 7 7 6 7 6 6 6 6 5 6 6 5 5 7 8 8 9 8 9 9 9 10 11 12 12 12 13 13 13 12 12 11 11 10 10 11 10 10 10 10 10 10 10 10 10 10 11 11 11 12 12 12 13 13 13 12 11 10 9 9 8 7 7 8 8 9 9 9 9 9 9 10 9 9
7 7 7 7 7 6 5 5 5 6 5 5 7 8 7 6 6 6 7 6 5 6 7 5 5 7 7 8 9 8 8 9 9 10 11 12 12 13 14 14 14 13 13 12 12 11 11 11 11 11 11 11 11 11 11 11 11 11 11 11 12 12 12 13 13 13 13 12 12 11 10 9 9 8 8 9 9 9 9 9 9 9 9 10 10 9
6 5 5 5 6 6 5 6 6 5 4 5 7 8 6 6 6 7 8 7 7 7 7 6 6 7 7 8 9 8 9 10 9 10 12 12 13 13 14 15 15 14 14 13 12 12 11 12 12 12 12 12 12 11 11 11 11 11 11 11 12 12 12 13 13 13 13 12 12 11 11 10 10 9 9 9 9 9 9 9 9 9 10 10 10 9
7 5 4 4 5 5 5 6 7 6 5 6 6 6 7 7 7 8 8 7 8 7 6 6 7 6 7 8 8 9 9 10 10 11 12 13 13 13 14 16 17 16 15 14 14 13 13 13 13 13 13 13 13 12 12 12 12 12 11 11 11 12 12 13 13 14 13 13 12 12 11 11 10 10 10 9 10 10 10 10 10 10 10 10 10 10
7 6 5 5 4 5 6 7 7 6 5 7 5 4 5 6 6 6 6 6 7 6 6 8 7 6 8 8 7 7 9 10 11 11 11 13 14 14 14 15 17 18 17 16 15 14 14 13 14 14 14 14 13 13 13 13 13 13 12 11 11 12 12 13 13 14 14 13 13 12 11 11 11 11 10 9 10 10 10 10 10 10 10 10 10 10
7 6 7 6 5 6 7 6 7 5 5 7 5 3 3 4 4 5 5 6 5 5 7 9 8 7 8 8 7 6 7 9 10 10 10 12 14 14 14 15 16 18 18 18 17 16 15 15 15 14 14 14 14 13 13 13 13 13 13 12 12 12 13 13 13 13 14 14 13 13 12 12 11 11 10 10 10 10 10 10 11 11 11 10 10 10
7 6 7 6 6 6 5 4 5 4 5 6 4 3 3 3 4 5 6 5 4 5 7 8 8 8 8 8 7 7 7 8 9 9 9 11 14 15 15 15 16 17 18 19 18 17 17 16 16 15 15 15 15 14 14 14 14 14 14 13 13 13 13 13 13 13 13 14 13 13 13 12 12 11 11 10 11 11 11 11 11 11 11 11 10 10
5 5 6 6 6 5 3 3 3 3 3 4 4 5 4 4 5 5 6 5 4 6 7 7 6 7 9 9 8 8 9 9 9 10 10 10 12 15 16 16 15 16 18 19 19 19 18 17 17 17 16 16 16 15 15 15 15 15 15 14 14 13 13 13 13 13 13 14 14 13 13 13 12 11 11 11 11 11 11 11 11 11 11 11 10 10
5 6 6 5 6 5 4 4 4 4 3 3 4 5 4 4 5 6 7 6 7 8 8 7 6 6 10 11 10 10 11 10 10 11 11 11 12 13 15 16 16 16 16 18 19 19 19 18 18 18 17 17 17 17 16 15 15 15 15 15 15 14 14 14 13 13 14 14 14 14 13 13 12 12 11 11 11 11 11 11 11 11 11 11 10 10
5 6 6 5 6 5 4 4 5 5 5 5 5 5 4 4 5 7 8 7 8 9 8 8 7 7 9 10 10 11 11 11 11 11 12 12 12 13 14 15 16 16 16 17 19 20 20 20 19 19 18 18 18 18 17 16 16 16 16 16 16 15 15 14 14 14 14 15 15 14 14 13 13 12 12 12 11 11 11 11 11 11 11 11 10 10
4 5 7 7 6 5 4 5 6 5 5 6 6 5 5 6 5 7 9 8 8 8 7 8 7 7 7 7 8 9 9 10 10 10 11 11 12 13 13 14 15 16 17 17 18 20 21 21 21 20 19 19 19 19 18 17 17 16 16 16 17 16 16 15 15 15 15 15 15 15 15 14 14 13 12 12 12 11 11 11 11 11 11 10 10 10
4 6 8 9 7 5 4 5 4 3 4 5 5 4 5 6 6 6 7 8 8 7 7 8 8 8 8 8 8 8 8 9 8 8 8 9 10 11 12 14 15 16 16 17 18 19 21 22 22 21 21 20 20 19 19 18 18 17 17 17 17 17 17 16 16 16 16 16 16 16 15 15 14 14 13 13 12 12 11 11 11 11 11 10 10 10
4 6 7 7 7 5 4 5 3 3 4 4 4 5 6 5 5 5 6 6 6 7 8 8 9 10 9 8 9 8 8 8 8 8 8 8 9 10 12 13 14 15 16 16 17 18 19 21 23 22 22 21 21 20 20 20 19 18 18 17 18 17 17 17 17 17 16 17 17 16 16 16 15 14 14 13 13 12 12 11 11 11 11 10 10 10
5 6 7 6 7 7 5 4 2 3 4 3 4 5 5 4 4 4 5 6 6 7 9 9 10 10 9 9 9 8 8 9 9 9 9 8 8 10 12 13 14 15 15 16 17 18 19 21 23 24 23 23 23 21 21 21 20 19 18 18 18 18 18 18 18 17 17 17 17 17 17 16 16 15 14 14 13 13 12 12 12 11 11 10 10 10
5 6 8 7 8 8 6 4 4 5 4 4 4 4 4 4 5 5 5 6 7 8 9 9 10 10 10 11 10 9 9 10 11 11 10 9 8 9 11 13 14 15 15 15 16 17 18 20 21 22 22 22 22 21 21 21 21 20 19 19 19 19 19 19 18 18 18 18 18 17 17 17 17 16 15 15 14 14 13 13 12 12 11 11 11 10
6 6 7 8 8 8 6 6 7 7 5 4 4 4 4 4 4 5 5 5 6 7 8 9 9 9 11 12 10 10 11 11 11 11 10 10 10 10 10 12 13 14 15 15 15 16 17 18 20 21 21 21 20 20 20 21 22 22 21 20 19 19 19 19 19 19 19 19 19 18 18 18 18 17 17 16 15 15 14 14 13 13 12 12 11 11
8 7 8 9 8 7 7 8 8 8 6 5 5 6 5 4 4 5 5 5 5 5 6 7 7 9 10 10 10 10 11 11 11 11 11 11 10 10 10 11 13 14 15 15 15 16 16 18 20 21 23 24 24 23 21 20 22 22 22 21 20 20 20 20 20 20 20 20 19 19 19 19 19 18 18 17 17 16 15 14 14 13 13 12 12 12
8 8 8 9 8 8 9 10 9 9 8 7 7 7 6 5 4 4 6 7 6 5 6 6 7 10 10 8 9 10 10 11 11 11 12 12 11 10 10 11 12 14 15 15 15 15 16 17 19 21 23 25 26 25 24 22 22 22 23 22 21 21 21 21 20 20 20 20 20 20 19 19 19 19 19 18 18 17 17 16 15 14 14 14 13 13
8 7 7 9 9 10 11 11 9 9 8 7 7 7 6 6 5 4 6 7 6 6 6 5 6 9 9 8 9 9 10 10 10 10 12 12 11 10 10 10 11 12 14 15 15 15 15 16 18 20 22 25 26 26 25 24 23 23 24 24 23 22 22 21 21 21 21 21 20 20 20 20 20 20 20 20 19 18 18 17 16 15 15 15 14 14
8 6 7 8 9 9 10 9 8 8 7 7 8 7 7 7 7 6 7 7 6 7 6 5 6 9 9 8 8 9 9 10 10 10 11 11 11 10 10 10 10 11 12 13 14 14 15 15 16 18 20 23 26 27 26 25 25 24 24 24 24 24 23 23 22 22 21 21 21 21 21 20 20 20 20 21 20 20 19 18 17 17 16 16 15 15
9 8 7 7 7 8 9 9 9 10 9 9 10 9 8 7 6 6 7 6 6 7 6 5 7 9 9 8 8 8 9 9 10 10 11 11 10 10 10 10 10 10 11 12 13 13 14 15 16 17 18 21 24 26 27 26 26 26 25 25 25 25 25 24 23 23 23 22 22 22 21 21 21 21 21 21 21 20 20 19 18 18 17 17 17 16
9 9 9 8 8 9 10 11 12 12 11 10 10 9 9 8 7 7 7 6 7 8 6 6 8 10 10 9 9 9 8 9 11 11 11 11 10 10 10 10 10 10 11 12 13 13 14 14 16 17 18 20 22 24 27 27 27 26 26 26 26 26 26 25 25 24 24 24 23 23 22 22 22 22 22 22 21 21 20 20 19 19 18 18 18 17
9 10 10 10 11 12 13 14 14 12 11 11 10 10 9 9 8 7 7 8 8 7 8 9 9 9 11 10 9 10 9 9 10 11 11 10 10 10 11 11 11 10 11 12 13 13 13 14 15 16 18 20 21 22 25 27 27 28 27 27 27 27 27 27 26 26 25 25 25 24 24 23 23 23 23 23 22 22 21 21 20 20 19 19 19 18
10 11 11 11 12 13 12 13 12 10 11 12 11 11 10 9 8 9 9 10 8 6 9 11 8 8 11 10 10 10 9 9 10 11 11 10 10 10 10 10 10 10 11 11 12 13 13 13 14 15 17 19 20 21 23 25 27 29 29 28 28 28 28 27 27 27 27 26 26 26 25 24 24 23 23 23 23 23 22 22 21 21 20 20 20 19
10 11 12 11 11 12 11 12 12 10 11 12 12 13 12 10 10 11 12 11 9 7 9 10 8 9 10 10 10 10 9 8 9 9 9 9 10 10 10 10 10 11 11 11 12 13 14 14 14 15 16 17 19 21 23 24 26 29 30 29 29 29 28 28 28 28 28 27 27 27 26 26 25 24 24 24 24 24 23 23 22 22 21 21 21 20
11 12 12 11 11 11 12 13 12 11 11 12 12 13 12 12 12 12 11 11 10 10 10 8 8 10 11 10 10 9 8 8 7 8 8 9 9 10 11 11 11 11 11 12 12 13 14 14 14 15 15 16 17 20 22 24 25 28 30 30 30 30 30 29 29 29 29 28 28 28 27 27 26 25 25 24 24 24 24 24 23 23 22 22 22 21
11 11 12 10 9 11 12 11 11 11 12 13 13 12 12 12 13 12 11 11 12 12 11 9 9 11 11 10 10 9 9 8 8 8 9 9 10 11 11 12 12 12 13 13 13 13 14 14 14 14 14 15 16 17 19 22 24 26 29 30 31 31 31 30 30 30 30 29 29 28 28 28 27 27 26 25 25 25 25 25 24 24 24 23 22 22
11 11 11 9 9 11 11 9 9 10 10 11 13 13 12 12 13 13 12 12 12 12 11 10 11 12 12 10 9 9 9 9 9 10 10 10 11 11 12 13 13 13 13 13 13 14 14 15 14 14 14 14 15 16 17 19 21 24 27 29 30 32 32 32 32 31 31 30 30 29 29 29 28 28 27 26 26 26 25 26 26 25 25 24 23 23
12 12 12 10 10 11 11 9 9 9 9 11 13 13 12 12 13 13 13 13 12 11 10 11 12 12 11 10 9 9 10 10 11 11 11 12 12 12 13 14 14 14 13 14 14 15 15 16 15 15 15 15 15 15 16 17 19 21 24 27 29 31 32 33 33 33 32 31 31 30 30 29 29 29 28 27 27 26 26 26 26 26 26 25 24 23
13 12 12 12 10 11 11 9 9 9 10 12 12 11 11 12 11 11 11 12 12 11 11 11 11 11 11 10 9 10 10 10 11 12 12 12 13 13 13 13 14 14 14 14 15 16 16 17 17 17 17 16 16 15 15 17 18 20 22 24 27 30 32 33 34 34 33 32 32 31 30 30 30 29 29 28 27 27 26 27 27 26 26 25 25 24
14 13 12 12 11 11 10 9 9 11 12 12 12 11 11 11 10 9 9 10 11 11 11 10 10 11 10 9 9 10 10 10 11 12 13 13 13 13 13 13 14 14 15 15 16 16 17 17 18 18 18 17 17 16 15 16 17 18 20 22 24 27 30 33 34 34 34 34 33 32 31 31 30 30 29 28 28 28 27 27 27 27 26 26 25 24
15 14 13 12 11 11 10 9 10 12 13 12 11 10 9 8 8 8 9 10 11 11 10 10 10 10 9 8 9 9 10 10 11 12 12 13 13 13 13 13 14 14 15 16 16 17 17 18 18 18 18 18 18 17 17 17 17 18 19 20 22 25 28 31 34 35 35 35 34 33 32 32 31 30 29 28 27 28 28 28 27 27 26 26 25 25
15 15 14 14 13 12 11 12 13 13 12 12 11 11 10 9 9 9 10 12 12 11 10 10 10 10 9 9 9 9 9 10 11 11 12 12 12 13 13 13 14 14 15 16 17 17 18 18 19 18 18 18 18 18 18 17 18 18 19 20 21 23 26 29 32 34 35 35 35 34 33 33 33 32 30 30 29 28 28 28 28 27 27 27 26 25
16 17 16 15 15 13 12 12 12 12 12 13 13 13 11 10 10 9 9 12 13 12 11 11 10 10 10 9 10 10 10 10 11 12 12 11 12 12 12 13 13 14 15 16 17 17 17 18 18 18 18 18 19 19 19 18 18 19 20 20 21 22 24 27 30 32 34 35 35 35 34 34 34 33 32 32 32 30 29 28 28 28 28 28 27 26
16 16 16 15 16 15 13 13 13 13 14 14 14 13 12 10 10 9 9 12 13 13 12 11 10 10 10 10 11 10 10 11 12 13 12 11 12 12 12 12 13 13 15 15 16 17 17 17 17 18 18 18 19 19 19 19 20 20 20 21 21 22 24 26 28 31 33 35 35 35 35 35 35 34 33 33 33 32 30 29 29 28 28 28 27 27
17 17 17 17 17 17 15 15 15 15 15 14 14 13 11 10 9 8 9 12 12 12 12 12 11 11 11 11 11 10 10 11 12 12 11 11 11 11 11 12 13 13 14 15 15 16 16 16 17 17 17 18 18 19 20 20 20 21 22 22 22 23 24 26 28 30 32 34 35 36 36 35 35 35 34 33 33 32 32 31 30 29 28 28 28 27
18 18 18 18 18 17 16 16 16 15 15 15 14 13 11 9 9 9 10 12 11 11 12 12 12 12 12 11 12 12 12 13 12 12 11 11 11 11 11 12 13 13 13 14 14 15 15 16 17 17 17 17 17 18 19 20 20 21 22 22 23 24 25 26 28 29 31 33 34 35 35 36 36 35 34 34 34 33 33 32 32 31 29 28 28 27
18 17 17 17 17 17 17 16 15 15 15 14 12 11 11 10 11 12 12 11 11 11 12 12 12 12 12 12 13 13 13 13 12 12 11 11 11 11 12 12 13 13 13 13 14 14 15 15 16 16 17 16 17 17 18 19 20 20 20 21 21 23 24 26 28 29 30 31 32 34 35 35 36 36 35 35 34 34 33 33 32 32 30 29 28 27
18 17 17 17 17 16 15 14 13 14 15 13 11 11 12 12 13 12 11 11 12 12 12 12 13 12 12 12 13 13 13 13 12 12 12 12 12 12 12 12 12 12 12 12 13 14 14 14 15 15 16 16 16 17 17 18 19 19 19 20 20 21 22 23 25 26 28 30 31 32 33 34 35 35 35 35 34 33 33 33 33 32 31 29 29 27
18 17 17 17 17 16 15 15 15 14 14 14 12 12 14 14 13 12 11 11 13 13 13 13 13 13 13 12 12 13 13 13 13 12 12 12 12 12 12 12 12 12 12 12 12 12 13 14 14 14 15 16 16 16 16 17 18 18 18 18 19 19 19 19 20 22 25 27 28 30 31 32 33 34 35 35 34 33 33 33 33 32 31 30 29 28
18 18 18 18 17 17 17 18 17 15 15 15 13 13 14 14 13 12 11 11 13 14 13 13 13 13 13 12 12 12 13 13 13 12 12 12 12 12 12 12 12 11 11 11 11 11 12 13 14 14 14 15 15 15 15 15 16 17 17 17 17 17 16 16 18 19 21 23 26 28 29 29 30 31 32 33 33 33 33 32 32 31 30 29 28 28
19 18 18 18 18 18 18 18 17 16 15 16 15 13 14 14 14 13 12 12 13 14 14 13 13 13 12 12 12 12 13 13 12 12 12 12 12 12 11 11 11 11 11 11 10 11 11 11 12 14 14 14 14 14 14 14 14 15 16 16 15 15 14 15 16 17 19 20 22 25 27 27 26 27 28 29 30 31 31 30 30 29 28 27 27 26
21 19 18 18 18 18 18 18 18 17 17 16 16 15 14 14 15 15 14 14 14 14 13 13 13 12 12 12 12 12 12 12 12 12 12 12 11 11 11 11 11 11 11 10 10 10 10 10 11 12 13 13 14 13 13 13 12 12 13 13 13 13 13 12 13 14 15 17 18 21 23 25 25 24 24 25 27 27 27 26 25 24 24 24 24 24
22 20 19 19 19 19 20 20 19 18 18 18 17 16 16 15 15 15 15 14 14 13 13 12 12 12 12 12 11 11 11 12 12 12 12 11 11 11 11 11 11 11 10 10 10 9 9 10 10 11 12 13 13 12 11 11 10 10 10 10 10 10 10 10 10 11 12 13 14 15 17 19 21 21 20 19 20 21 21 21 21 20 21 22 23 22
21 21 20 20 19 20 20 20 18 17 17 17 17 17 16 16 15 14 14 14 13 12 12 12 12 12 11 11 11 11 11 12 12 12 11 11 11 11 11 12 11 11 10 9 9 9 9 9 9 9 10 11 11 10 9 9 8 8 7 7 7 7 7 7 7 8 10 11 11 11 12 13 15 17 17 16 16 16 15 16 16 16 18 19 20 20
18 19 19 18 18 18 18 18 17 15 15 17 17 16 16 15 14 13 14 14 13 13 12 12 11 11 11 11 11 11 12 13 13 12 12 11 11 12 12 11 11 10 10 9 9 9 8 8 8 8 9 9 9 8 7 7 6 6 5 5 5 5 5 5 5 6 8 9 10 12 13 13 14 16 15 14 13 13 13 14 13 13 14 16 16 16
17 17 17 17 18 18 17 17 17 16 16 17 17 16 15 15 14 14 14 14 14 14 13 12 11 11 12 12 12 12 13 13 13 12 12 12 12 12 12 11 10 10 9 9 9 8 8 7 7 7 7 7 7 6 6 5 5 5 4 4 4 4 5 6 6 7 8 8 10 11 12 13 13 14 13 12 12 12 12 12 12 12 12 13 13 14
Wind_Direction
199 205 213 207 200 202 208 212 214 220 221 220 227 238 237 242 253 239 220 210 195 198 217 212 217 228 229 228 229 230 217 207 205 206 211 210 207 206 201 198 197 195 196 195 190 187 185 182 176 170 168 164 162 163 163 162 161 162 162 163 163 164 165 166 167 168 169 170 170 171 171 171 170 168 165 163 161 160 161 162 163 164 167 170 173 174
193 203 211 202 197 206 214 216 221 229 230 228 231 238 247 245 246 244 230 214 209 217 232 227 228 236 229 222 230 234 227 219 214 211 214 213 211 210 205 202 201 197 194 195 195 192 189 188 182 176 174 171 169 168 169 169 167 166 167 169 168 168 170 171 173 174 174 174 174 173 173 172 172 170 168 167 167 166 166 168 169 170 173 175 176 176
193 204 212 205 201 208 213 213 221 233 233 232 236 237 248 243 233 240 236 218 218 229 239 238 235 240 234 222 225 229 229 230 224 217 216 214 213 213 209 204 202 201 198 198 199 197 193 192 188 182 181 180 176 174 174 175 173 172 173 174 174 174 174 175 177 178 178 178 177 176 174 172 172 172 170 169 170 171 170 172 173 174 176 177 178 178
192 203 207 200 194 198 209 211 213 230 235 229 230 234 244 238 224 230 231 221 223 227 232 234 237 244 240 231 229 226 227 234 231 224 222 218 215 216 213 209 205 204 202 200 201 200 196 194 193 190 188 185 181 179 178 179 179 178 178 179 179 180 180 180 180 181 180 180 180 179 177 176 177 176 174 173 176 178 176 176 177 178 179 179 179 179
198 203 196 192 190 190 204 212 209 224 240 234 223 224 230 227 224 224 216 217 229 231 226 229 248 254 243 237 238 232 229 234 235 230 228 224 221 221 218 215 211 208 205 201 201 202 198 195 196 196 194 189 187 185 184 184 184 184 183 182 183 184 185 185 185 184 183 183 184 183 182 182 184 183 181 181 183 185 184 182 181 182 182 182 181 181
204 204 190 197 202 195 206 226 217 209 228 243 228 221 216 208 215 212 204 214 230 237 234 229 247 261 255 246 243 241 237 236 235 232 229 227 225 225 222 218 213 211 210 205 204 204 202 199 198 199 198 194 193 193 190 189 188 188 188 186 186 188 188 188 188 188 187 187 188 189 189 190 190 189 190 189 188 188 188 186 186 186 186 185 185 186
193 195 177 187 203 201 211 228 224 204 209 249 239 220 206 196 199 202 206 216 225 233 239 230 231 255 267 258 250 249 244 241 239 234 232 230 229 227 224 220 216 213 212 210 209 208 206 203 201 201 202 199 198 198 195 193 192 192 191 191 190 191 190 190 190 191 191 191 193 194 195 196 195 194 195 195 192 191 191 191 190 190 189 189 189 190
188 190 173 176 192 196 207 225 228 211 209 247 246 212 198 197 200 205 209 218 225 229 243 239 229 247 264 259 256 250 240 242 241 236 235 233 232 231 226 222 219 216 215 213 211 210 210 208 205 203 203 204 203 200 198 196 196 196 195 194 194 194 193 192 191 193 194 195 197 198 198 200 200 200 200 198 196 195 194 195 194 193 192 192 193 194
194 194 192 189 194 204 217 229 228 217 229 248 241 206 202 202 204 214 214 221 230 232 247 251 238 242 259 262 265 254 238 241 242 237 236 234 232 232 228 225 222 220 218 216 213 213 213 213 211 207 205 206 206 202 201 200 199 200 198 196 196 197 196 195 194 195 197 199 200 200 201 202 202 204 204 201 200 198 195 195 195 194 195 195 196 197
207 208 202 195 207 223 231 239 233 225 235 236 215 186 201 202 212 224 220 222 237 243 247 252 244 240 257 264 264 254 240 242 243 240 237 234 232 232 231 228 225 223 220 218 218 216 215 216 215 212 207 208 208 205 204 204 202 202 201 199 198 200 201 199 199 199 199 200 201 202 203 203 203 204 205 203 202 200 197 196 196 197 198 197 198 199
224 221 207 202 213 221 222 232 233 210 197 204 203 197 197 215 228 227 226 225 242 258 251 251 245 236 251 262 254 245 240 238 242 246 240 232 231 231 232 231 227 225 222 220 220 219 218 218 217 215 211 210 210 209 206 206 205 204 204 203 201 202 204 203 203 202 201 200 201 202 203 204 204 204 204 203 202 200 198 198 197 199 200 200 200 200
230 214 209 219 221 213 203 213 232 222 198 196 211 214 211 236 241 232 241 241 242 255 253 254 249 232 240 251 250 250 251 246 244 247 244 234 230 230 230 230 229 228 225 221 220 219 218 218 218 217 215 212 211 211 209 208 208 207 207 207 205 205 206 206 205 204 203 202 202 204 204 205 205 203 203 202 200 199 198 199 199 199 202 202 202 202
226 217 218 231 226 214 201 203 227 254 248 218 213 217 218 243 250 244 250 248 246 253 253 250 249 241 245 249 250 256 258 253 248 246 245 242 237 233 231 229 228 229 228 224 221 220 218 217 217 217 217 215 213 213 212 210 209 209 209 209 209 208 209 208 207 206 206 205 205 205 206 206 205 203 203 202 201 201 201 201 200 200 202 203 203 203
235 238 231 225 225 223 207 200 217 235 229 213 213 218 222 238 253 253 253 254 255 259 259 254 254 257 261 258 252 253 256 256 254 251 250 248 244 240 235 230 228 228 229 227 223 221 220 218 216 217 217 216 215 215 214 212 211 211 211 210 211 211 211 211 210 209 209 209 208 207 208 208 206 205 204 203 203 203 204 203 201 201 202 203 203 204
224 236 225 214 218 225 223 214 213 213 214 220 223 223 230 233 239 248 248 247 249 255 259 256 254 252 258 261 254 254 261 261 260 257 254 252 249 246 242 235 230 228 228 227 225 223 222 221 218 217 218 218 217 216 215 215 213 212 212 211 212 212 212 212 212 212 212 211 210 209 209 209 208 207 206 205 205 205 205 204 203 203 202 203 204 204
218 230 225 219 220 222 227 226 215 198 211 230 231 234 247 239 235 245 244 240 242 248 253 250 250 252 256 264 265 267 271 267 266 266 260 257 253 246 242 238 233 230 227 227 226 224 222 222 220 218 218 219 219 217 216 216 216 214 213 213 213 213 214 213 213 214 214 212 210 210 210 210 209 209 208 207 206 206 205 205 205 205 204 204 204 204
225 238 235 225 226 231 224 217 223 224 224 240 243 242 251 244 235 241 246 254 252 249 255 251 254 265 268 266 268 273 277 275 278 278 271 265 257 246 242 239 235 232 229 227 227 226 223 222 222 221 219 218 219 219 217 217 217 216 215 214 214 214 215 215 215 215 215 213 212 211 211 211 210 209 208 208 208 208 207 207 207 208 207 206 206 205
220 236 242 223 216 234 232 208 226 248 236 249 255 247 256 262 259 251 253 270 269 257 260 256 254 262 263 262 267 272 274 276 278 278 275 272 263 252 247 243 239 235 231 228 229 229 227 224 223 223 221 219 219 219 219 218 218 218 217 216 215 215 215 216 216 216 216 215 213 213 212 212 211 210 210 210 210 211 210 210 210 211 211 209 208 208
220 233 246 229 217 234 246 231 239 264 266 254 248 251 271 274 270 272 263 263 266 264 268 266 262 260 254 257 262 261 262 268 272 274 273 272 267 258 251 246 242 239 235 231 230 231 231 229 227 224 222 220 219 220 220 218 217 218 218 218 217 217 217 217 217 216 216 216 215 215 214 213 212 212 212 213 213 213 214 214 214 213 212 211 211 211
227 229 240 237 231 237 247 237 235 253 267 266 266 273 281 277 269 275 272 263 263 265 268 273 274 266 258 256 252 251 256 260 263 268 268 268 268 263 256 250 244 240 236 234 233 234 234 231 229 226 224 222 222 223 223 220 218 217 218 218 219 219 219 218 218 217 216 216 216 217 216 215 214 214 214 215 216 216 217 218 217 215 215 214 214 214
235 232 233 239 241 234 235 235 232 238 245 253 267 268 268 273 269 274 282 279 271 264 263 270 275 271 266 259 248 250 257 256 257 263 266 267 268 267 262 254 248 243 238 237 236 236 236 233 230 227 225 223 223 224 224 222 220 219 219 219 219 220 219 218 219 218 217 216 217 218 218 217 217 216 216 217 218 219 220 220 219 218 218 218 218 218
238 235 227 231 235 230 237 242 238 239 242 244 253 254 253 258 262 275 286 282 277 272 263 261 271 275 273 265 255 254 257 258 259 261 266 268 267 266 264 256 251 246 242 240 239 237 237 235 231 227 224 222 222 223 224 223 222 221 221 220 219 220 220 219 219 219 218 217 217 218 219 219 219 218 218 219 220 221 221 221 221 221 221 221 221 221
234 232 223 227 232 234 245 250 242 240 244 248 255 254 253 263 266 267 274 274 273 275 273 267 270 277 278 273 267 262 260 262 263 262 265 267 264 262 263 260 255 250 245 244 243 240 238 236 232 229 226 224 223 223 224 224 223 222 222 222 221 221 222 221 220 219 219 218 218 218 219 219 219 220 220 220 221 222 223 223 223 223 224 224 224 225
231 231 225 232 242 245 252 256 251 247 248 253 260 258 257 267 269 264 266 270 268 264 268 275 276 277 283 284 277 270 269 269 266 263 264 265 262 259 261 263 260 255 250 246 244 243 241 239 236 231 227 225 223 223 224 225 224 223 223 223 223 222 223 223 222 221 220 219 219 219 220 220 220 220 220 221 222 223 224 224 224 224 225 226 227 228
233 235 225 228 245 253 257 262 262 258 255 254 255 257 260 264 268 270 273 280 276 263 256 266 273 275 283 289 283 278 279 276 269 265 263 262 261 259 260 262 261 257 252 247 244 244 242 240 239 235 230 226 224 224 225 225 225 225 223 223 223 224 224 224 224 223 221 221 221 221 221 221 221 221 221 222 223 223 224 225 225 226 227 228 229 230
232 237 230 228 236 243 250 257 257 253 253 256 256 255 258 258 258 264 270 275 273 266 257 258 267 277 287 290 284 278 275 273 270 267 265 264 261 260 262 263 263 259 253 248 244 243 242 240 239 238 235 231 228 226 226 226 226 226 225 224 224 224 224 224 225 225 224 223 222 222 223 223 223 222 222 223 224 225 225 226 226 227 228 229 231 232
233 239 240 236 238 244 250 253 252 248 248 254 257 255 253 254 258 261 264 265 262 261 263 261 263 278 288 286 281 275 268 266 268 267 266 268 267 264 263 263 264 261 255 250 246 243 243 241 240 240 237 235 233 231 229 228 227 227 226 226 225 225 224 224 225 226 226 225 224 224 224 224 224 224 223 223 224 226 227 228 228 229 230 231 233 234
234 242 244 242 247 251 252 253 255 253 249 248 252 256 255 252 253 254 255 258 257 260 272 269 261 271 280 278 274 272 266 265 268 268 269 274 274 269 266 264 263 261 257 253 248 245 243 241 240 241 240 239 237 235 233 232 230 228 228 228 227 226 225 224 224 226 227 227 227 226 226 225 226 226 225 225 226 226 228 229 230 231 232 233 234 234
234 243 245 247 254 254 252 257 260 257 255 251 250 254 255 249 246 249 252 253 250 254 269 270 260 264 273 273 270 269 265 265 269 271 275 279 278 275 272 266 263 262 260 256 252 247 243 241 239 239 240 241 239 238 237 235 234 231 230 229 228 227 227 225 224 224 226 228 228 228 228 227 227 227 227 227 227 228 229 230 231 232 233 234 234 235
239 245 247 249 257 257 256 259 258 254 256 257 255 255 254 249 248 253 256 253 250 256 265 267 264 267 270 266 266 269 266 264 270 275 278 279 278 278 275 269 264 261 259 258 254 249 245 244 243 241 241 242 241 241 239 237 236 234 232 230 229 228 228 227 226 225 225 226 229 230 229 229 229 229 229 229 229 230 230 231 232 233 233 234 234 235
244 245 248 251 257 261 262 261 259 257 254 255 260 262 257 252 254 258 258 253 255 261 265 269 274 277 274 267 264 266 265 265 271 275 275 275 276 277 276 272 268 262 259 258 257 252 248 247 248 246 246 246 246 245 242 239 238 235 233 232 230 228 228 228 228 227 226 226 228 230 230 230 230 230 230 230 230 231 231 232 233 234 235 235 235 235
243 244 249 252 252 256 260 261 262 263 260 261 267 265 256 252 254 256 255 251 252 255 260 268 275 277 277 273 268 268 267 267 270 271 273 276 277 277 274 271 268 266 263 261 259 256 252 252 251 251 251 252 252 250 246 242 239 236 234 233 231 230 229 229 228 228 228 228 228 229 230 231 231 232 232 231 231 232 233 233 234 234 235 235 235 235
240 240 244 245 246 251 257 258 256 261 265 267 266 259 253 255 257 257 257 253 249 249 255 263 268 271 276 277 274 272 271 267 268 270 273 276 278 276 273 269 267 267 266 263 260 257 254 252 251 252 253 255 255 253 250 246 243 240 238 236 234 231 229 229 229 229 230 230 230 229 230 231 232 233 233 232 232 233 234 234 234 235 234 234 235 236
239 238 241 244 245 247 253 255 252 256 260 261 263 259 254 255 253 251 252 250 248 252 258 262 266 271 275 273 268 269 270 268 269 271 272 275 277 276 275 271 267 266 265 263 260 258 256 253 252 252 253 255 255 255 253 249 246 244 242 240 238 234 231 229 229 229 230 231 231 231 231 231 232 233 234 234 233 234 235 234 234 234 234 234 235 237
237 237 241 245 243 243 249 251 251 255 255 259 270 269 258 253 248 244 252 253 251 256 260 263 267 268 268 267 265 266 267 266 268 270 272 274 276 276 276 273 269 264 262 262 261 259 258 257 254 252 252 253 254 255 255 253 251 249 246 243 241 237 233 230 230 229 230 230 231 232 231 231 232 233 235 235 235 235 235 234 234 234 235 235 237 238
233 236 238 241 241 242 243 241 247 257 259 264 275 273 261 257 250 247 258 262 256 254 254 257 263 266 268 270 268 266 266 267 271 273 273 273 274 275 275 272 269 264 261 261 261 260 259 259 258 255 253 253 254 255 256 256 255 253 250 247 243 240 235 232 231 230 230 230 231 231 232 232 231 232 234 235 237 238 237 235 234 235 236 236 237 239
231 235 237 239 240 241 240 242 251 261 263 263 267 264 259 259 252 245 255 262 259 252 251 256 263 267 271 272 269 269 271 274 280 280 276 273 274 275 274 272 269 267 264 263 262 261 260 260 260 259 256 254 254 255 256 257 257 256 254 250 246 242 238 234 232 231 230 230 230 231 232 232 231 232 233 234 236 239 239 237 236 236 237 237 238 239
234 236 235 235 239 240 242 248 254 257 257 257 257 259 261 259 252 249 257 264 260 251 249 257 265 266 268 270 269 273 278 281 281 280 277 275 275 275 275 274 271 268 266 265 264 262 260 259 259 260 260 258 256 255 256 258 259 258 256 253 249 245 241 237 234 232 231 230 231 231 232 232 233 233 233 234 234 236 238 238 237 237 237 238 238 239
238 240 237 235 239 240 240 245 247 249 253 255 254 259 262 255 250 259 271 270 262 250 249 259 264 262 264 265 266 272 278 278 276 276 276 275 275 277 278 276 273 271 268 267 265 263 260 259 259 261 262 261 259 258 258 259 259 258 257 255 253 249 245 241 237 234 231 231 232 232 232 232 233 233 233 233 234 234 235 236 237 237 237 237 238 238
237 241 239 236 238 240 240 245 249 250 254 256 255 255 255 249 249 261 270 269 260 249 250 259 262 262 263 263 265 270 271 270 273 275 274 274 276 280 281 277 276 276 274 270 267 265 263 262 261 261 263 263 262 260 259 259 260 259 258 257 255 252 249 246 241 236 234 233 233 233 234 233 232 232 232 233 234 234 234 235 236 236 235 235 236 236
235 239 239 236 238 240 240 244 251 253 252 254 253 248 243 246 252 254 258 262 257 250 255 260 262 264 263 259 261 267 268 268 272 274 273 274 277 280 281 279 280 281 279 275 271 268 264 263 261 261 263 264 264 263 262 261 261 261 261 260 257 254 252 249 245 240 236 235 234 233 234 233 232 232 232 232 233 233 233 235 235 234 233 233 233 234
234 237 238 236 237 240 240 242 249 254 250 244 244 243 240 244 251 255 260 263 254 250 258 263 264 265 263 259 261 266 268 269 270 270 271 272 274 277 281 283 283 284 283 280 275 270 266 264 262 262 263 265 266 266 265 264 263 264 265 263 260 258 256 252 248 242 237 236 235 234 233 233 233 232 232 232 232 231 232 232 232 232 231 230 230 232
231 232 235 236 235 238 241 242 244 249 245 233 232 244 248 249 254 256 260 264 258 255 259 263 264 265 262 262 265 265 265 266 265 266 268 270 272 277 281 284 287 288 287 284 279 272 267 264 263 263 264 266 268 269 267 266 266 267 267 265 262 262 260 254 248 243 238 235 235 233 233 233 232 232 231 230 230 230 229 228 228 228 229 228 229 231
233 233 235 237 235 234 238 240 242 246 242 231 232 246 250 251 256 254 253 258 260 260 261 262 264 265 263 264 265 263 261 261 261 263 266 269 273 278 281 285 289 291 291 289 284 277 270 265 264 264 265 266 269 270 269 269 268 268 270 270 266 263 259 251 245 240 237 235 234 233 233 233 233 231 230 229 229 229 228 226 226 228 229 230 230 231
236 235 234 237 239 238 239 241 245 248 244 238 242 252 252 251 254 253 253 258 259 259 261 262 264 267 267 265 264 262 260 259 260 262 264 268 273 277 280 285 289 290 290 290 289 285 277 268 264 264 264 266 269 271 272 272 271 271 272 272 268 264 258 249 242 239 236 235 234 233 232 233 232 230 228 228 228 229 228 226 226 226 228 229 230 229
240 238 236 239 243 244 244 245 248 250 248 243 247 254 253 250 251 251 254 260 260 258 261 263 264 266 267 265 265 264 262 259 259 261 264 267 273 277 281 286 288 289 290 291 290 288 284 275 267 263 264 267 271 273 274 274 274 273 272 270 266 261 256 251 244 240 236 234 233 231 230 230 229 227 226 227 228 229 228 226 224 224 226 227 227 225
241 239 239 241 243 242 245 250 252 252 251 249 249 252 252 250 250 251 255 260 261 259 259 262 265 265 266 266 266 264 262 258 257 261 264 266 271 276 281 286 288 289 291 290 288 288 286 281 272 265 264 268 271 273 273 273 275 274 270 266 261 255 253 252 246 239 234 231 229 227 225 224 224 223 225 226 226 226 225 223 222 222 222 221 220 220
239 239 240 241 242 242 246 252 255 253 253 252 249 249 249 248 249 252 255 257 259 259 259 262 265 265 266 266 264 262 261 258 257 261 264 266 269 274 280 285 287 288 289 288 287 287 287 284 277 269 265 266 268 270 271 271 272 272 267 261 255 251 251 249 241 232 225 222 220 218 218 218 216 214 214 214 214 215 217 220 222 223 221 220 218 218
237 239 239 240 243 245 247 251 252 253 254 253 249 247 247 247 247 249 251 254 255 256 257 261 266 266 263 262 262 262 262 260 260 262 264 266 269 274 279 283 285 285 284 285 285 285 286 285 280 271 265 263 263 265 268 268 267 267 264 259 254 249 243 235 226 217 212 208 204 201 200 197 194 192 193 197 201 205 209 214 216 217 216 215 215 215
234 236 236 236 239 243 243 241 240 242 247 248 245 245 245 245 244 244 247 250 251 251 253 260 265 267 264 262 264 265 265 265 264 263 264 267 269 273 277 280 281 280 279 279 282 284 284 284 279 272 266 261 257 257 260 262 261 261 260 255 247 237 223 206 189 182 187 189 187 189 189 184 179 181 187 194 199 203 207 209 210 209 208 208 211 213
229 229 229 230 233 237 238 236 234 238 245 246 242 241 243 243 242 242 245 248 250 252 254 257 260 264 266 266 266 265 265 266 264 263 265 267 269 271 273 274 274 274 272 272 277 281 280 279 278 275 267 257 248 243 242 245 248 246 242 236 225 208 192 181 170 164 166 169 171 177 182 182 182 185 189 192 192 193 194 196 199 202 203 203 206 208